Fountain Dale, PA

5:16 AM EST on November 23, 2017 (GMT -0500)
Fountain Dale

Weather History for KRYT - April, 2013

Change the Weather History Date:

Thursday, April 18, 2013

  Actual Average (KHGR) Record (KHGR)
Temperature  
Mean Temperature 64 °F -  
Max Temperature 73 °F 61 °F 86 °F (2002)
Min Temperature 57 °F 41 °F 33 °F (2001)
Growing Degree Days 14 (Base 50)    
Moisture  
Dew Point 57 °F    
Average Humidity 83    
Maximum Humidity 94    
Minimum Humidity 68    
Precipitation  
Precipitation 0.05 in - - ()
Sea Level Pressure  
Sea Level Pressure 30.10 in    
Wind  
Wind Speed 1 mph (NE)    
Max Wind Speed 8 mph    
Max Gust Speed -    
Visibility 4 miles    
Events Fog , Rain    
Averages and records for this station are not official NWS values.
T = Trace of Precipitation, MM = Missing Value Source: NWS Daily Summary

Daily Weather History Graph

Daily Weather History Graph

Search for Another Location

Airport or City:

Trip Planner

Search our weather history database for the weather conditions in past years. The results will help you decide how hot, cold, wet, or windy it might be!

Date:

Astronomy

Apr. 18, 2013 Rise Set
Actual Time 6:27 AM EDT 7:51 PM EDT
Civil Twilight 5:59 AM EDT 8:19 PM EDT
Nautical Twilight 5:25 AM EDT 8:53 PM EDT
Astronomical Twilight 4:50 AM EDT 9:28 PM EDT
Moon 12:37 PM EDT (4/18) 2:04 AM EDT (4/18)
Length of Visible Light 14h 19m
Length of Day
13h 23m
First Quarter, 51% of the Moon is Illuminated
Apr 18
First Quarter
Apr 25
Full
May 2
Last Quarter
May 9
New
May 18
First Quarter

Hourly Weather History & Observations

Time (EDT) Temp. Dew Point Humidity Pressure Visibility Wind Dir Wind Speed Gust Speed Precip Events Conditions
8:53 AM 57.9 °F 54.0 °F 87% 30.19 in 0.8 mi Calm Calm - N/A   Overcast
9:04 AM 57.2 °F 53.6 °F 88% 30.20 in 0.8 mi Calm Calm - N/A   Overcast
9:45 AM 57.2 °F 53.6 °F 88% 30.20 in 1.0 mi Calm Calm - N/A   Overcast
9:53 AM 57.9 °F 54.0 °F 87% 30.19 in 0.8 mi Calm Calm - N/A   Overcast
10:08 AM 57.2 °F 53.6 °F 88% 30.20 in 1.2 mi Calm Calm - N/A   Overcast
10:36 AM 57.2 °F 55.4 °F 94% 30.20 in 0.5 mi Calm Calm - 0.01 in Fog Fog
10:53 AM 57.9 °F 55.0 °F 90% 30.18 in 0.8 mi Calm Calm - 0.01 in   Overcast
11:05 AM 59.0 °F 55.4 °F 88% 30.19 in 1.0 mi Calm Calm - N/A   Overcast
11:53 AM 60.1 °F 55.9 °F 86% 30.17 in 1.0 mi Calm Calm - 0.01 in   Overcast
12:51 PM 60.8 °F 57.2 °F 88% 30.16 in 2.0 mi Calm Calm - 0.01 in Rain Light Rain
12:53 PM 60.1 °F 57.0 °F 90% 30.14 in 2.0 mi Calm Calm - 0.01 in Rain Light Rain
1:05 PM 60.8 °F 55.4 °F 82% 30.15 in 3.0 mi Calm Calm - 0.01 in Rain Light Rain
1:17 PM 60.8 °F 55.4 °F 82% 30.15 in 8.0 mi Calm Calm - 0.01 in   Overcast
1:53 PM 61.0 °F 57.0 °F 87% 30.12 in 4.0 mi Calm Calm - 0.02 in   Overcast
2:05 PM 60.8 °F 57.2 °F 88% 30.13 in 3.0 mi Calm Calm - N/A   Overcast
2:13 PM 60.8 °F 57.2 °F 88% 30.13 in 2.5 mi Calm Calm - N/A   Overcast
2:34 PM 60.8 °F 57.2 °F 88% 30.13 in 1.2 mi Calm Calm - N/A   Overcast
2:53 PM 61.0 °F 57.9 °F 90% 30.10 in 0.5 mi Calm Calm - N/A Fog Fog
3:19 PM 62.6 °F 59.0 °F 88% 30.10 in 1.0 mi Calm Calm - N/A   Overcast
3:53 PM 63.0 °F 59.0 °F 87% 30.07 in 1.5 mi North 3.5 mph - N/A   Overcast
4:11 PM 64.4 °F 60.8 °F 88% 30.07 in 2.5 mi Variable 3.5 mph - N/A   Haze
4:18 PM 64.4 °F 60.8 °F 88% 30.07 in 2.5 mi Variable 4.6 mph - N/A   Haze
4:40 PM 66.2 °F 60.8 °F 83% 30.06 in 3.0 mi Calm Calm - N/A   Haze
4:53 PM 68.0 °F 61.0 °F 78% 30.04 in 4.0 mi NE 4.6 mph - N/A   Haze
5:17 PM 69.8 °F 62.6 °F 78% 30.05 in 5.0 mi ENE 8.1 mph - N/A   Haze
5:35 PM 69.8 °F 62.6 °F 78% 30.05 in 4.0 mi NE 4.6 mph - N/A   Haze
5:53 PM 71.1 °F 62.1 °F 73% 30.02 in 5.0 mi Variable 4.6 mph - N/A   Haze
6:53 PM 72.0 °F 61.0 °F 68% 30.00 in 10.0 mi Variable 3.5 mph - N/A   Mostly Cloudy
7:53 PM 69.1 °F 59.0 °F 70% 30.00 in 10.0 mi Variable 3.5 mph - N/A   Overcast
8:53 PM 68.0 °F 57.0 °F 68% 30.00 in 10.0 mi Variable 3.5 mph - N/A   Mostly Cloudy
9:53 PM 66.0 °F 57.0 °F 73% 29.99 in 10.0 mi Calm Calm - N/A   Clear
10:53 PM 63.0 °F 55.9 °F 78% 29.98 in 10.0 mi Calm Calm - N/A   Clear
11:53 PM 64.0 °F 55.0 °F 73% 29.97 in 10.0 mi Calm Calm - N/A   Clear